When you browse on this site, cookies collect data to enhance your experience and personalize the content and advertising you see.
Visit our Privacy Policy to learn more. By continuing to use the site, you agree to this use of cookies and data.
  • en France
  • Liste des pays
  • À 7 jours
  • Température de l'eau
  • Carte météo
  • Widgets météo
  • user-avatar
    Se connecter

    Météo par heure à Zhilina

    Ce jour, 27 Mai, Mercredi

    Heure Température Précipitation Vent Pression Humidité
    00:00 +8°C° 0 mm 2 m/s 741 mmHg 97%
    01:00 +8°C° 0 mm 2 m/s 741 mmHg 98%
    02:00 +8°C° 0 mm 2 m/s 741 mmHg 98%
    03:00 +8°C° 0 mm 2 m/s 741 mmHg 98%
    04:00 +7°C° 0 mm 2 m/s 741 mmHg 98%
    05:00 +9°C° 0 mm 2 m/s 741 mmHg 94%
    06:00 +10°C° 0 mm 2 m/s 741 mmHg 90%
    07:00 +12°C° 0 mm 2 m/s 741 mmHg 87%
    08:00 +12°C° 0 mm 3 m/s 741 mmHg 79%
    09:00 +13°C° 0 mm 3 m/s 741 mmHg 72%
    10:00 +16°C° 0 mm 3 m/s 741 mmHg 65%
    11:00 +16°C° 0 mm 3 m/s 741 mmHg 61%
    12:00 +17°C° 0 mm 4 m/s 741 mmHg 58%
    13:00 +18°C° 0 mm 4 m/s 740 mmHg 55%
    14:00 +18°C° 0.1 mm 4 m/s 740 mmHg 56%
    15:00 +18°C° 0.1 mm 4 m/s 740 mmHg 58%
    16:00 +18°C° 0.1 mm 4 m/s 739 mmHg 59%
    17:00 +16°C° 0.1 mm 3 m/s 739 mmHg 67%
    18:00 +15°C° 0.1 mm 2 m/s 739 mmHg 75%
    19:00 +13°C° 0.1 mm 2 m/s 739 mmHg 83%
    20:00 +12°C° 0 mm 2 m/s 739 mmHg 86%
    21:00 +11°C° 0 mm 1 m/s 739 mmHg 90%
    22:00 +10°C° 0 mm 1 m/s 739 mmHg 94%
    23:00 +9°C° 0 mm 1 m/s 738 mmHg 94%

    Demain, 28 Mai, Jeudi

    Heure Température Précipitation Vent Pression Humidité
    00:00 +9°C° 0 mm 1 m/s 738 mmHg 95%
    01:00 +8°C° 0 mm 1 m/s 738 mmHg 95%
    02:00 +8°C° 0 mm 1 m/s 738 mmHg 96%
    03:00 +8°C° 0 mm 1 m/s 737 mmHg 96%
    04:00 +8°C° 0 mm 1 m/s 737 mmHg 96%
    05:00 +10°C° 0 mm 1 m/s 737 mmHg 91%
    06:00 +12°C° 0 mm 1 m/s 737 mmHg 86%
    07:00 +13°C° 0 mm 1 m/s 737 mmHg 80%
    08:00 +15°C° 0 mm 2 m/s 736 mmHg 72%
    09:00 +16°C° 0 mm 2 m/s 736 mmHg 63%
    10:00 +17°C° 0 mm 2 m/s 736 mmHg 54%
    11:00 +17°C° 0.1 mm 3 m/s 736 mmHg 56%
    12:00 +17°C° 0.1 mm 3 m/s 736 mmHg 59%
    13:00 +17°C° 0.1 mm 3 m/s 735 mmHg 61%
    14:00 +16°C° 0.2 mm 3 m/s 735 mmHg 68%
    15:00 +14°C° 0.2 mm 4 m/s 735 mmHg 74%
    16:00 +13°C° 0.2 mm 4 m/s 735 mmHg 81%
    17:00 +12°C° 0.1 mm 3 m/s 735 mmHg 84%
    18:00 +11°C° 0.1 mm 3 m/s 735 mmHg 87%
    19:00 +10°C° 0.1 mm 2 m/s 734 mmHg 90%
    20:00 +10°C° 0 mm 2 m/s 735 mmHg 92%
    21:00 +9°C° 0 mm 2 m/s 735 mmHg 95%
    22:00 +10°C° 0 mm 1 m/s 735 mmHg 97%
    23:00 +10°C° 0.1 mm 1 m/s 735 mmHg 97%

    Après-demain, 29 Mai, Vendredi

    Heure Température Précipitation Vent Pression Humidité
    00:00 +9°C° 0.1 mm 2 m/s 734 mmHg 96%
    01:00 +9°C° 0.1 mm 2 m/s 734 mmHg 96%
    02:00 +8°C° 0 mm 2 m/s 734 mmHg 97%
    03:00 +8°C° 0 mm 2 m/s 734 mmHg 97%
    04:00 +7°C° 0 mm 2 m/s 734 mmHg 98%
    05:00 +8°C° 0 mm 2 m/s 734 mmHg 95%
    06:00 +9°C° 0 mm 2 m/s 734 mmHg 93%
    07:00 +10°C° 0 mm 2 m/s 735 mmHg 90%
    08:00 +12°C° 0 mm 2 m/s 735 mmHg 87%
    09:00 +12°C° 0 mm 2 m/s 735 mmHg 84%
    10:00 +13°C° 0 mm 2 m/s 735 mmHg 81%
    11:00 +12°C° 0.1 mm 3 m/s 734 mmHg 77%
    12:00 +13°C° 0.1 mm 3 m/s 734 mmHg 74%
    13:00 +14°C° 0.1 mm 3 m/s 734 mmHg 70%
    14:00 +14°C° 0 mm 3 m/s 733 mmHg 71%
    15:00 +14°C° 0 mm 3 m/s 733 mmHg 71%
    16:00 +14°C° 0 mm 3 m/s 733 mmHg 72%
    17:00 +13°C° 0.1 mm 3 m/s 733 mmHg 78%
    18:00 +13°C° 0.1 mm 2 m/s 733 mmHg 83%
    19:00 +12°C° 0.1 mm 2 m/s 733 mmHg 89%
    20:00 +10°C° 0.1 mm 2 m/s 733 mmHg 90%
    21:00 +10°C° 0.1 mm 2 m/s 733 mmHg 92%
    22:00 +9°C° 0.1 mm 2 m/s 733 mmHg 93%
    23:00 +8°C° 0 mm 2 m/s 733 mmHg 94%

    30 Mai, Samedi

    Heure Température Précipitation Vent Pression Humidité
    00:00 +7°C° 0 mm 2 m/s 733 mmHg 95%
    01:00 +7°C° 0 mm 2 m/s 733 mmHg 97%
    02:00 +7°C° 0 mm 1 m/s 733 mmHg 97%
    03:00 +7°C° 0 mm 1 m/s 733 mmHg 98%
    04:00 +6°C° 0 mm 1 m/s 732 mmHg 98%
    05:00 +6°C° 0 mm 2 m/s 732 mmHg 93%
    06:00 +8°C° 0 mm 2 m/s 733 mmHg 88%
    07:00 +9°C° 0 mm 2 m/s 733 mmHg 83%
    08:00 +10°C° 0 mm 2 m/s 733 mmHg 77%
    09:00 +11°C° 0 mm 3 m/s 733 mmHg 71%
    10:00 +12°C° 0 mm 3 m/s 733 mmHg 65%
    11:00 +12°C° 0 mm 3 m/s 733 mmHg 61%
    12:00 +13°C° 0 mm 3 m/s 732 mmHg 58%
    13:00 +14°C° 0 mm 3 m/s 732 mmHg 55%
    14:00 +14°C° 0 mm 3 m/s 732 mmHg 56%
    15:00 +14°C° 0 mm 3 m/s 732 mmHg 56%
    16:00 +14°C° 0 mm 3 m/s 731 mmHg 57%
    17:00 +13°C° 0 mm 3 m/s 731 mmHg 64%
    18:00 +13°C° 0 mm 2 m/s 731 mmHg 72%
    19:00 +11°C° 0 mm 1 m/s 731 mmHg 79%
    20:00 +10°C° 0 mm 1 m/s 731 mmHg 83%
    21:00 +9°C° 0 mm 1 m/s 731 mmHg 88%
    22:00 +8°C° 0 mm 1 m/s 731 mmHg 93%
    23:00 +8°C° 0 mm 1 m/s 731 mmHg 93%

    31 Mai, Dimanche

    Heure Température Précipitation Vent Pression Humidité
    00:00 +7°C° 0 mm 0 m/s 731 mmHg 94%
    01:00 +7°C° 0 mm 0 m/s 731 mmHg 94%
    02:00 +7°C° 0 mm 0 m/s 731 mmHg 95%
    03:00 +8°C° 0 mm 0 m/s 731 mmHg 95%
    04:00 +9°C° 0 mm 1 m/s 730 mmHg 95%
    05:00 +9°C° 0 mm 1 m/s 730 mmHg 92%
    06:00 +10°C° 0 mm 1 m/s 730 mmHg 89%
    07:00 +11°C° 0 mm 1 m/s 730 mmHg 85%
    08:00 +12°C° 0 mm 1 m/s 730 mmHg 83%
    09:00 +12°C° 0 mm 1 m/s 730 mmHg 81%
    10:00 +13°C° 0 mm 1 m/s 730 mmHg 78%
    11:00 +12°C° 0.8 mm 1 m/s 730 mmHg 84%
    12:00 +12°C° 0.8 mm 1 m/s 730 mmHg 90%
    13:00 +11°C° 0.8 mm 1 m/s 729 mmHg 96%
    14:00 +11°C° 1.1 mm 1 m/s 729 mmHg 97%
    15:00 +11°C° 1.1 mm 1 m/s 729 mmHg 98%
    16:00 +11°C° 1.1 mm 1 m/s 729 mmHg 98%
    17:00 +11°C° 0.8 mm 1 m/s 729 mmHg 98%
    18:00 +11°C° 0.8 mm 1 m/s 729 mmHg 99%
    19:00 +11°C° 0.8 mm 1 m/s 729 mmHg 99%
    20:00 +12°C° 0.7 mm 1 m/s 729 mmHg 99%
    21:00 +12°C° 0.7 mm 1 m/s 729 mmHg 99%
    22:00 +12°C° 0.7 mm 1 m/s 729 mmHg 99%
    23:00 +12°C° 0.7 mm 1 m/s 729 mmHg 99%

    1 Juin, Lundi

    Heure Température Précipitation Vent Pression Humidité
    00:00 +13°C° 0.7 mm 1 m/s 729 mmHg 99%
    01:00 +13°C° 0.7 mm 2 m/s 729 mmHg 99%
    02:00 +13°C° 0.1 mm 2 m/s 729 mmHg 99%
    03:00 +14°C° 0.1 mm 2 m/s 729 mmHg 98%
    04:00 +14°C° 0.1 mm 2 m/s 729 mmHg 98%
    05:00 +15°C° 0 mm 2 m/s 729 mmHg 96%
    06:00 +14°C° 0 mm 3 m/s 730 mmHg 94%
    07:00 +16°C° 0 mm 3 m/s 730 mmHg 92%
    08:00 +16°C° 0.1 mm 3 m/s 730 mmHg 89%
    09:00 +17°C° 0.1 mm 3 m/s 730 mmHg 86%
    10:00 +17°C° 0.1 mm 4 m/s 730 mmHg 82%
    11:00 +18°C° 0.1 mm 4 m/s 730 mmHg 75%
    12:00 +19°C° 0.1 mm 5 m/s 731 mmHg 67%
    13:00 +20°C° 0.1 mm 5 m/s 731 mmHg 60%
    14:00 +20°C° 0 mm 5 m/s 730 mmHg 60%
    15:00 +20°C° 0 mm 5 m/s 730 mmHg 61%
    16:00 +20°C° 0 mm 5 m/s 730 mmHg 61%
    17:00 +19°C° 0 mm 4 m/s 730 mmHg 68%
    18:00 +17°C° 0 mm 3 m/s 730 mmHg 75%
    19:00 +16°C° 0 mm 3 m/s 730 mmHg 82%
    20:00 +15°C° 0 mm 2 m/s 731 mmHg 87%
    21:00 +13°C° 0 mm 2 m/s 731 mmHg 92%
    22:00 +12°C° 0 mm 2 m/s 731 mmHg 97%
    23:00 +12°C° 0 mm 2 m/s 731 mmHg 97%
    Voir plus